Location: Boursonne
(49.2024°N, 3.0468°E)
Time: 03:39:51
(UTC+00:00)

Meteor 1-23 Rocket - Pass Details

Date: 03 March 2021
Orbit: 838 x 888 km, 81.3° (Epoch: 16 April)

Event Time Altitude Azimuth Distance (km) Brightness Sun altitude
Rises 19:20:47 0° 352° (N) 3,406 7.6 -18.1°
Reaches altitude 10° 19:23:19 10° 358° (N) 2,471 6.8 -18.5°
Maximum altitude 19:28:40 45° 71° (ENE) 1,139 4.5 -19.4°
Enters shadow 19:30:16 36° 113° (ESE) 1,314 4.7 -19.6°
